Wind_Speed
5 4 4 3 3 3 3 3 2 1 1 1 2 3 3 4 4 5 5 4 4 4 4 4 5 5 4 4 3 3 3 2 3 3 2 2 2 3 3 3 3 2 2
5 4 4 4 4 3 3 3 3 1 0 1 1 2 2 3 4 4 4 4 4 4 4 3 3 4 3 4 4 3 3 3 3 3 2 2 2 2 3 3 2 2 1
5 5 5 5 4 4 4 4 3 2 1 1 1 1 2 2 2 3 3 3 4 4 4 3 2 2 3 4 4 3 3 3 3 3 3 3 3 3 2 2 2 2 1
5 5 5 5 5 5 4 4 3 3 2 1 1 1 2 3 3 3 3 3 4 4 3 4 3 3 3 3 4 3 4 3 3 3 3 3 3 3 2 2 2 2 1
5 6 6 6 5 5 5 4 3 3 2 1 1 1 1 2 3 3 3 3 3 4 4 4 3 3 4 4 4 3 3 3 3 2 2 3 3 3 2 2 2 2 1
5 6 6 6 6 5 4 4 4 3 3 2 1 1 2 2 2 2 2 3 3 4 4 4 4 4 4 4 4 4 4 4 3 2 2 3 2 2 2 2 2 2 2
6 6 6 6 6 5 4 3 3 3 3 3 2 2 2 3 2 2 2 3 4 4 5 5 5 6 6 5 5 4 4 4 3 3 3 3 2 1 1 1 1 3 3
7 7 7 7 6 5 4 4 4 4 3 3 3 3 3 2 2 2 2 2 3 4 5 5 6 6 6 4 4 4 4 3 3 2 3 3 3 2 2 2 2 3 4
7 7 6 7 6 5 5 4 4 4 4 3 3 3 3 2 2 2 2 2 3 2 3 4 5 5 5 4 4 5 5 5 4 4 3 3 3 3 3 3 3 3 4
7 7 7 7 7 7 5 5 5 5 5 5 4 3 3 2 2 2 3 3 2 2 2 3 4 5 5 5 5 4 5 5 5 5 4 4 4 3 4 4 4 4 5
7 7 8 8 8 7 6 6 6 6 6 5 4 3 3 2 2 2 3 3 3 3 3 3 4 5 5 6 6 6 5 6 6 6 5 5 5 5 5 5 6 6 6
7 7 8 8 9 8 7 7 7 7 6 5 4 4 3 3 3 3 3 3 3 3 4 4 4 4 6 6 6 6 6 6 6 6 6 6 6 6 6 6 6 6 7
7 8 8 9 9 9 9 8 8 8 7 7 6 4 4 4 3 4 4 4 4 4 4 5 6 5 6 6 5 5 6 7 6 7 7 7 7 7 7 7 7 8 8
8 8 8 9 10 10 10 9 9 8 7 7 6 5 5 5 4 5 4 5 5 5 4 5 5 5 5 5 5 5 5 6 6 7 7 8 8 8 8 9 9 9 10
9 9 10 10 10 10 10 11 11 9 8 7 7 6 6 6 6 6 6 6 6 7 6 6 6 6 6 7 7 7 6 6 7 6 7 8 9 10 10 11 11 11 11
10 10 10 10 11 11 11 10 10 10 9 8 7 7 7 7 7 7 7 7 7 7 8 8 7 8 7 7 8 8 8 7 8 9 8 8 9 10 11 12 12 12 11
10 11 11 11 11 11 11 11 11 10 10 9 9 8 8 8 8 9 8 8 8 8 9 9 9 9 9 8 8 9 9 8 8 10 10 10 10 10 11 11 11 11 12
11 11 12 12 12 12 12 12 12 11 11 11 10 10 9 9 9 9 9 9 10 9 9 9 10 10 9 9 9 10 9 9 10 10 11 11 12 12 13 12 12 12 13
11 12 12 13 13 13 12 12 12 12 12 11 11 10 10 10 10 10 9 9 10 10 9 10 10 10 10 10 10 11 11 10 11 12 12 13 13 13 14 14 14 14 14
12 12 13 13 13 13 13 12 12 12 12 12 12 11 11 11 10 11 10 10 10 10 10 10 10 10 10 10 11 11 11 12 12 13 13 13 13 13 14 15 16 16 15
12 13 14 14 13 13 12 12 12 12 13 13 13 12 12 12 12 11 11 10 10 11 11 11 11 11 11 11 12 12 12 13 13 14 14 14 14 14 15 15 16 17 17
13 14 14 14 14 13 13 12 12 13 13 13 13 13 13 13 13 12 12 12 11 11 12 12 12 12 12 13 13 13 14 14 15 15 15 15 15 15 15 16 16 18 18
14 14 15 14 14 13 12 13 13 13 13 13 14 13 13 14 13 13 13 13 12 12 12 13 13 13 13 13 14 15 15 15 14 15 16 16 17 16 16 17 17 18 18
15 15 15 14 14 13 13 13 13 13 13 13 14 14 14 14 13 13 13 13 13 13 13 13 13 14 14 14 14 15 15 15 16 16 17 17 18 17 18 18 19 19 19
15 15 15 13 14 14 13 13 13 13 14 14 14 14 14 13 13 14 13 13 13 13 14 14 15 15 15 15 16 16 16 16 17 17 18 19 19 19 20 20 20 20 20
15 16 16 15 14 14 14 15 15 14 15 15 15 14 14 14 14 14 14 14 14 14 14 15 16 16 17 17 17 17 17 17 18 18 19 20 20 21 22 22 21 21 21
Wind_Direction
42 35 26 24 39 48 48 56 66 96 139 172 165 170 175 183 187 186 186 193 192 187 187 184 185 187 183 172 176 182 185 177 158 141 140 146 145 145 142 140 138 121 106
45 40 34 35 34 34 38 40 42 42 127 199 198 193 194 192 189 195 198 203 204 194 182 174 175 188 191 184 184 191 195 186 154 144 143 146 149 150 156 161 157 147 137
41 41 37 34 30 25 23 19 16 13 340 304 266 230 222 221 211 205 205 202 201 193 192 185 185 201 201 189 189 191 185 166 153 151 150 152 153 156 161 167 168 172 175
40 41 35 32 27 27 22 11 1 349 344 326 291 252 243 241 248 243 221 215 202 199 197 197 204 208 193 193 200 196 184 174 166 155 158 162 167 164 155 164 177 193 227
36 35 36 27 24 25 20 14 3 352 345 327 294 267 247 255 258 248 234 218 207 199 199 202 205 205 197 203 205 210 202 197 177 161 167 176 175 171 162 177 196 213 240
34 30 27 21 20 18 14 11 1 351 346 337 304 268 268 284 295 260 243 219 214 208 211 208 208 206 203 204 207 211 211 212 214 211 181 168 167 169 168 179 201 220 251
37 30 28 25 21 17 13 7 357 352 346 346 332 297 294 287 272 270 272 231 216 217 224 223 215 213 216 213 219 224 220 207 202 212 197 197 199 189 181 212 236 242 256
32 31 26 27 20 14 11 7 4 355 348 344 342 331 327 326 268 256 280 246 219 220 226 229 228 228 226 226 231 224 219 221 211 202 219 217 213 213 235 252 261 263 261
30 25 22 24 19 9 9 7 360 357 358 346 337 328 319 313 300 270 249 249 244 252 252 243 240 236 231 231 234 229 232 238 231 231 239 238 230 232 243 250 264 275 270
28 24 20 15 15 12 10 7 4 357 354 352 342 333 316 305 295 272 265 264 266 271 266 260 257 254 246 243 242 237 237 238 243 241 247 252 242 248 250 252 262 267 264
23 24 21 16 12 12 4 3 2 357 354 351 338 325 313 297 275 277 273 274 272 271 270 268 266 253 245 249 246 243 242 244 247 248 250 249 251 262 266 261 264 265 262
20 20 19 16 9 7 4 359 352 354 352 348 329 315 307 297 283 281 292 288 279 276 277 277 288 267 253 250 246 245 249 249 248 248 249 250 253 257 263 266 265 264 264
16 14 13 8 4 3 1 355 351 349 343 339 334 317 309 306 303 294 291 287 280 283 286 283 287 288 261 247 250 255 258 252 247 247 250 252 252 257 261 265 266 267 265
14 10 5 1 359 357 356 352 346 343 340 338 334 325 319 317 316 305 289 284 282 278 279 287 286 280 273 270 259 261 262 251 250 255 256 257 258 262 263 264 265 266 264
11 9 6 2 357 354 353 350 347 341 339 334 328 320 318 317 310 303 294 288 284 279 274 277 282 276 275 280 268 266 268 263 262 264 264 262 262 263 263 263 265 267 266
5 2 360 359 356 352 351 348 345 345 340 333 333 320 313 313 310 304 296 289 288 282 277 275 274 272 275 276 275 270 268 269 273 272 272 269 267 266 265 265 265 268 268
357 354 353 353 352 351 348 344 342 342 341 334 332 327 313 311 308 304 300 290 287 285 280 276 273 271 273 278 283 282 272 274 280 278 274 270 270 269 269 271 270 269 267
355 351 347 346 344 342 341 340 338 337 334 331 329 328 323 313 307 303 297 289 288 286 284 276 275 274 274 277 282 281 278 280 283 282 274 271 269 268 268 270 271 272 270
353 349 345 343 340 337 336 336 336 333 330 330 328 326 325 322 317 309 298 293 292 290 285 280 277 277 278 279 282 281 279 279 281 284 279 275 271 270 269 268 270 270 269
351 348 344 342 339 336 332 332 333 332 328 327 327 324 323 320 317 312 306 303 297 295 295 297 291 286 283 281 282 283 283 281 282 285 285 280 276 276 275 271 269 269 268
347 346 343 342 337 335 334 331 331 330 328 326 324 321 319 317 315 313 308 301 295 294 295 294 294 290 287 282 281 282 281 281 282 283 283 283 283 280 278 274 272 271 269
344 344 343 340 338 333 333 332 331 330 327 324 321 318 314 313 313 312 307 302 296 293 293 294 294 291 289 285 283 282 281 282 282 281 282 284 284 283 283 281 276 273 272
340 340 340 340 339 335 332 332 334 332 330 327 322 320 317 313 310 310 308 304 298 294 291 292 292 290 288 287 286 287 285 285 285 285 284 283 283 283 285 286 285 280 277
337 338 339 340 340 338 333 331 332 333 332 330 327 323 318 313 311 311 308 304 300 295 292 290 290 289 288 288 287 287 286 285 285 285 287 286 285 285 285 286 285 281 278
336 337 337 337 338 337 331 329 329 328 328 328 329 328 322 318 315 314 311 307 304 299 295 290 288 288 288 288 287 288 287 285 284 285 286 287 286 286 285 285 284 283 278
334 333 335 335 334 334 333 332 330 329 328 328 329 329 324 321 319 316 312 309 307 304 296 291 287 287 287 288 288 286 286 286 285 286 285 285 287 286 283 284 284 282 278
Height
5880 5879 5878 5878 5878 5877 5877 5877 5877 5877 5878 5878 5878 5878 5878 5878 5879 5879 5879 5880 5880 5880 5881 5881 5882 5882 5883 5884 5885 5885 5886 5886 5887 5888 5888 5889 5890 5890 5891 5891 5892 5892 5893
5881 5880 5879 5879 5879 5878 5878 5878 5878 5878 5878 5878 5878 5878 5878 5879 5879 5879 5879 5879 5880 5880 5881 5881 5882 5882 5883 5884 5885 5885 5886 5886 5887 5888 5888 5889 5890 5890 5891 5892 5892 5893 5893
5882 5881 5881 5880 5880 5879 5879 5879 5879 5879 5879 5878 5878 5878 5878 5879 5879 5879 5879 5879 5880 5880 5881 5881 5882 5882 5883 5884 5885 5885 5886 5887 5887 5888 5888 5889 5890 5890 5891 5892 5892 5893 5893
5883 5882 5882 5881 5881 5880 5880 5879 5879 5879 5879 5879 5878 5878 5878 5878 5878 5879 5879 5879 5880 5880 5881 5881 5882 5882 5883 5884 5885 5885 5886 5887 5887 5888 5888 5889 5890 5890 5891 5892 5892 5893 5893
5884 5883 5883 5882 5881 5881 5880 5880 5879 5879 5879 5879 5879 5878 5878 5878 5878 5878 5878 5879 5879 5880 5880 5881 5882 5882 5883 5884 5885 5885 5886 5887 5887 5887 5888 5889 5890 5891 5891 5891 5892 5893 5893
5885 5884 5884 5883 5882 5881 5881 5880 5880 5879 5879 5879 5879 5879 5878 5878 5878 5878 5878 5878 5879 5879 5880 5881 5882 5882 5883 5884 5884 5885 5886 5886 5887 5887 5888 5889 5890 5890 5891 5891 5892 5892 5893
5886 5885 5884 5883 5882 5882 5881 5880 5880 5880 5879 5879 5878 5878 5878 5878 5878 5878 5878 5878 5879 5879 5879 5880 5881 5882 5882 5883 5884 5885 5885 5886 5887 5888 5888 5889 5890 5890 5891 5891 5891 5892 5892
5887 5886 5885 5884 5883 5883 5882 5881 5880 5880 5879 5879 5878 5878 5878 5877 5877 5878 5878 5878 5879 5879 5879 5880 5881 5881 5882 5883 5883 5884 5885 5886 5887 5887 5888 5888 5889 5890 5890 5891 5891 5891 5892
5889 5888 5886 5885 5884 5883 5882 5882 5881 5880 5880 5879 5879 5878 5878 5878 5878 5878 5878 5878 5878 5879 5879 5879 5880 5881 5882 5882 5883 5883 5884 5885 5886 5887 5888 5888 5889 5889 5890 5890 5890 5891 5891
5890 5889 5887 5886 5885 5884 5883 5883 5882 5881 5880 5879 5879 5878 5878 5878 5878 5878 5878 5878 5878 5878 5879 5879 5879 5880 5881 5882 5883 5883 5884 5884 5885 5886 5887 5887 5888 5889 5889 5889 5890 5890 5890
5891 5890 5889 5887 5886 5885 5884 5883 5882 5881 5880 5879 5879 5878 5878 5878 5878 5878 5878 5878 5878 5878 5878 5878 5879 5879 5880 5881 5881 5882 5883 5884 5884 5885 5886 5886 5887 5888 5888 5888 5889 5889 5889
5892 5891 5890 5888 5887 5885 5884 5883 5883 5882 5881 5880 5879 5878 5878 5878 5878 5878 5877 5877 5877 5877 5878 5878 5878 5878 5878 5879 5880 5881 5881 5882 5883 5884 5885 5885 5886 5886 5887 5887 5887 5887 5888
5892 5891 5890 5889 5888 5886 5885 5884 5883 5882 5881 5880 5879 5878 5878 5877 5877 5878 5877 5877 5877 5877 5877 5877 5877 5877 5877 5878 5879 5880 5880 5881 5882 5882 5883 5883 5884 5885 5885 5885 5886 5886 5886
5893 5892 5891 5889 5888 5887 5885 5884 5883 5882 5881 5880 5879 5878 5877 5877 5877 5877 5877 5877 5876 5877 5877 5877 5877 5877 5877 5877 5878 5878 5879 5879 5880 5880 5881 5882 5882 5883 5883 5883 5884 5884 5885
5894 5893 5891 5890 5888 5887 5886 5884 5883 5882 5881 5880 5879 5878 5877 5877 5877 5877 5876 5876 5876 5876 5876 5876 5876 5877 5877 5876 5877 5877 5877 5878 5878 5878 5879 5879 5880 5880 5881 5881 5882 5882 5882
5895 5893 5892 5890 5889 5887 5886 5885 5883 5882 5881 5879 5879 5878 5877 5876 5876 5876 5875 5875 5874 5875 5875 5875 5875 5875 5875 5875 5875 5875 5876 5876 5876 5876 5877 5877 5878 5878 5878 5878 5879 5879 5880
5895 5894 5892 5890 5889 5887 5886 5884 5883 5881 5880 5879 5878 5877 5876 5875 5875 5875 5874 5873 5873 5873 5873 5873 5873 5873 5874 5874 5874 5874 5874 5874 5874 5874 5874 5875 5875 5875 5876 5876 5876 5877 5877
5895 5894 5892 5890 5889 5887 5886 5884 5882 5881 5879 5878 5877 5876 5875 5874 5873 5873 5872 5872 5871 5871 5871 5871 5872 5871 5872 5872 5872 5872 5872 5872 5872 5871 5871 5872 5872 5873 5873 5873 5873 5874 5874
5895 5894 5892 5890 5888 5887 5885 5883 5882 5880 5879 5877 5876 5875 5874 5873 5872 5871 5870 5870 5870 5870 5870 5869 5870 5870 5870 5870 5870 5870 5870 5870 5870 5869 5869 5869 5869 5869 5870 5870 5871 5871 5871
5895 5893 5892 5890 5888 5886 5884 5883 5881 5880 5878 5877 5875 5874 5872 5871 5871 5870 5869 5868 5868 5868 5867 5867 5867 5867 5867 5867 5867 5867 5867 5867 5867 5867 5866 5866 5866 5866 5866 5867 5867 5867 5868
5895 5893 5891 5889 5887 5885 5883 5882 5880 5879 5877 5875 5874 5873 5871 5870 5869 5868 5867 5866 5866 5866 5865 5865 5865 5865 5865 5864 5864 5864 5864 5864 5864 5863 5863 5863 5863 5863 5862 5863 5863 5864 5864
5894 5892 5889 5887 5885 5883 5882 5881 5879 5878 5876 5874 5872 5871 5870 5868 5867 5866 5865 5864 5864 5863 5863 5863 5862 5862 5862 5861 5861 5861 5861 5862 5861 5860 5859 5859 5859 5859 5859 5859 5859 5859 5859
5893 5891 5889 5886 5884 5882 5881 5879 5878 5876 5874 5873 5871 5869 5868 5866 5865 5864 5863 5862 5861 5861 5860 5860 5860 5859 5859 5858 5858 5858 5857 5857 5857 5857 5856 5856 5856 5856 5856 5855 5855 5854 5855
5892 5890 5888 5885 5883 5881 5880 5878 5877 5875 5873 5871 5869 5867 5865 5864 5862 5861 5860 5859 5858 5858 5857 5857 5857 5856 5856 5855 5854 5854 5854 5853 5853 5853 5852 5852 5851 5851 5851 5851 5850 5850 5850
5891 5889 5887 5885 5883 5881 5879 5877 5875 5873 5871 5869 5867 5865 5863 5862 5860 5859 5857 5856 5855 5854 5854 5853 5853 5853 5852 5852 5851 5850 5850 5849 5849 5849 5849 5848 5847 5846 5846 5846 5845 5845 5845
5890 5888 5886 5884 5882 5880 5878 5875 5873 5871 5869 5867 5865 5864 5862 5860 5858 5856 5855 5854 5852 5851 5851 5850 5850 5849 5849 5848 5847 5846 5846 5845 5845 5844 5844 5843 5842 5841 5840 5840 5839 5839 5839